STARLINK-2039 (47655 NORAD) Tracking and Keplerian Element Data

This shows tracking and keplerian element data for the satellite.

Feedback or suggestion? Click here.




ElementValue
Catalog47655
NameSTARLINK-2039
Epoch Orbit177
Epoch Day59.91667824
Epoch Year2021
RAAN38.6794
Inclination53.0516
Eccentricity0.0001151
Argument of Perigee73.2289
Mean Anonmoly138.8281
Mean Motion15.72731469
Decay Rate-0.00971038
L11 47655U 21012AM 21059.91667824 -.00971038 00000-0 -77766-2 0 9998
L22 47655 53.0516 38.6794 0001151 73.2289 138.8281 15.72731469 1776

Live tracking and technical data element details for STARLINK-2039 (NORAD 47655). STARLINK-2039 can be tracked NOW for your location showing map with azimuth and elevation plus other details from your city location.

Track the satellite on the map from your city or location and see movement details for azimuth, elevation, latitude, longitude, range, height, and movement on the map or in text.







IsCatalogInMostPopularTable: catalog: 47655, numindb: 3
Update: records affected: 1



GetName: 47655 STARLINK-2039

Hit Count: updated at: Mon, 01 Mar 2021 16:54:43 GMT